Wenatchee, WA
on Monday, January 28, 2013

Monday
Previous Day Next Day
Daily Summary
 ActualAverageRecord
Temperature
Mean Temperature °F 29°F  
Max Temperature 32°F 35°F 57°F (1984)
Min Temperature 27°F 23°F -8°F (1972)
Degree Days
Heating Degree Days 35 36  
Month to date heating degree days 1182 1052  
Since 1 July heating degree days 3845 4150  
Cooling Degree Days 0 0  
Month to date cooling degree days 0 0  
Year to date cooling degree days 0 0  
Moisture
Dew Point 24°F   
Average Humidity 88    
Maximum Humidity 93    
Minimum Humidity 79    
Precipitation
Precipitation 0.05 in 0.05 in 0.50 in (1981)
Month to date precipitation 1.37 1.73  
Year to date precipitation 1.37 1.73  
Snow
Snow 0.50 in 0.40 in in ()
Month to date snowfall 12.5 14.4  
Since 1 July snowfall 42.8 39.3  
Snow Depth 6.00 in   
Wind
Wind Speed 2 mph   
Max Wind Speed 5 mph   
Max Gust Speed mph   
Visibility 7 miles   
Events     

Key: T is trace of precipitation, MM is missing value
Source: NWS Daily Summary
Time(PST)TemperatureDew PointHumidity Pressure Visibility Wind DirectionWind SpeedGust SpeedPrecipitationEvents Conditions
12:55 AM 27.0°F 24.1°F 89% 29.99 in 7.0 miles West 4.6 mph - N/A   Overcast
1:37 AM 26.6°F 24.8°F 93% 29.93 in 7.0 miles WNW 4.6 mph - N/A   Overcast
1:55 AM 27.0°F 24.1°F 89% 29.98 in 6.0 miles WNW 3.5 mph - N/A   Overcast
2:12 AM 26.6°F 24.8°F 93% 29.94 in 4.0 miles WNW 4.6 mph - N/A   Overcast
2:55 AM 26.1°F 24.1°F 92% 29.99 in 5.0 miles WNW 4.6 mph - N/A   Overcast
3:32 AM 26.6°F 24.8°F 93% 29.94 in 8.0 miles NW 3.5 mph - N/A   Overcast
4:55 AM 26.1°F 24.1°F 92% 29.98 in 10.0 miles Calm Calm - N/A   Overcast
5:25 AM 26.6°F 24.8°F 93% 29.93 in 10.0 miles Calm Calm - N/A   Overcast
5:55 AM 26.1°F 24.1°F 92% 29.98 in 8.0 miles Calm Calm - N/A   Overcast
7:55 AM 26.1°F 24.1°F 92% 29.99 in 2.5 miles Calm Calm - N/A   Overcast
8:03 AM 26.6°F 24.8°F 93% 29.96 in 3.0 miles Calm Calm - N/A   Overcast
8:21 AM 26.6°F 24.8°F 93% 29.95 in 2.0 miles Calm Calm - N/A   Overcast
8:30 AM 26.6°F 24.8°F 93% 29.95 in 1.0 miles Calm Calm - N/A   Overcast
9:16 AM 26.6°F 24.8°F 93% 29.95 in 3.0 miles Calm Calm - N/A   Overcast
9:55 AM 26.1°F 24.1°F 92% 29.99 in 6.0 miles Calm Calm - N/A   Overcast
10:55 AM 28.0°F 24.1°F 85% 29.99 in 7.0 miles Calm Calm - N/A   Overcast
11:42 AM 28.4°F 24.8°F 86% 29.94 in 9.0 miles Calm Calm - N/A   Overcast
11:55 AM 28.0°F 24.1°F 85% 29.98 in 9.0 miles Calm Calm - N/A   Mostly Cloudy
12:02 PM 28.4°F 24.8°F 86% 29.93 in 9.0 miles Calm Calm - N/A   Scattered Clouds
12:55 PM 28.9°F 24.1°F 82% 29.95 in 8.0 miles Calm Calm - N/A   Partly Cloudy
1:55 PM 28.9°F 24.1°F 82% 29.94 in 9.0 miles Calm Calm - N/A   Clear
2:55 PM 30.0°F 25.0°F 82% 29.92 in 10.0 miles Calm Calm - N/A   Clear
3:55 PM 30.9°F 25.0°F 79% 29.92 in 10.0 miles Calm Calm - N/A   Clear
4:55 PM 30.0°F 24.1°F 79% 29.90 in 10.0 miles East 4.6 mph - N/A   Clear
5:55 PM 30.0°F 25.0°F 82% 29.91 in 10.0 miles ENE 3.5 mph - N/A   Clear
6:55 PM 28.0°F 23.0°F 81% 29.91 in 10.0 miles East 3.5 mph - N/A   Clear
7:55 PM 28.9°F 24.1°F 82% 29.91 in 10.0 miles Calm Calm - N/A   Clear
8:55 PM 28.0°F 24.1°F 85% 29.91 in 10.0 miles Calm Calm - N/A   Clear
9:55 PM 27.0°F 24.1°F 89% 29.92 in 8.0 miles North 3.5 mph - N/A   Clear
10:55 PM 28.0°F 25.0°F 88% 29.91 in 9.0 miles Calm Calm - N/A   Clear
11:55 PM 27.0°F 24.1°F 89% 29.92 in 8.0 miles WSW 3.5 mph - N/A   Partly Cloudy
Moon Phase
Jan. 28 Feb. 03 Feb. 10 Feb. 17 Feb. 25
Sunrise:07:31 AM (PST) Moon Rise:07:09 PM (PST)1/28
Sunset:04:57 PM (PST) Moon Set:07:49 AM (PST)1/28

Copyright © 2014 The Weather Underground, Inc.